Time,TemperatureF,DewpointF,PressureIn,WindDirection,WindDirectionDegrees,WindSpeedMPH,WindSpeedGustMPH,Humidity,HourlyPrecipIn,Conditions,Clouds,dailyrainin,SoftwareType,DateUTC
2013-03-12 00:00:00,49.7,46.3,30.16,South,180,4.0,5.8,88,0.00,,,0.00,WUHU216HW,2013-03-12 07:00:00,
2013-03-12 00:05:00,49.5,46.1,30.16,SSE,158,3.8,7.4,88,0.00,,,0.00,WUHU216HW,2013-03-12 07:05:00,
2013-03-12 00:10:00,49.5,46.1,30.16,SSW,203,2.7,7.4,88,0.00,,,0.00,WUHU216HW,2013-03-12 07:10:00,
2013-03-12 00:15:00,49.5,46.1,30.15,South,180,5.6,5.8,88,0.00,,,0.00,WUHU216HW,2013-03-12 07:15:00,
2013-03-12 00:20:00,49.5,46.1,30.15,SSE,158,1.8,5.8,88,0.00,,,0.00,WUHU216HW,2013-03-12 07:20:00,
2013-03-12 00:25:00,49.7,46.3,30.15,South,180,4.0,6.9,88,0.00,,,0.00,WUHU216HW,2013-03-12 07:25:00,
2013-03-12 00:30:00,49.7,46.3,30.15,SSE,158,2.2,6.9,88,0.00,,,0.00,WUHU216HW,2013-03-12 07:30:00,
2013-03-12 00:35:00,49.7,46.3,30.15,South,180,3.1,6.9,88,0.00,,,0.00,WUHU216HW,2013-03-12 07:35:00,
2013-03-12 00:40:00,49.7,46.3,30.14,South,180,4.0,4.9,88,0.00,,,0.00,WUHU216HW,2013-03-12 07:40:00,
2013-03-12 00:45:00,49.7,46.3,30.14,South,180,2.9,6.9,88,0.00,,,0.00,WUHU216HW,2013-03-12 07:45:00,
2013-03-12 00:50:00,49.7,46.3,30.14,SSW,203,1.6,6.9,88,0.00,,,0.00,WUHU216HW,2013-03-12 07:50:00,
2013-03-12 00:55:00,49.7,46.3,30.14,SSW,203,3.8,6.5,88,0.00,,,0.00,WUHU216HW,2013-03-12 07:55:00,
2013-03-12 01:00:00,49.7,46.3,30.14,SSW,203,6.9,6.9,88,0.00,,,0.00,WUHU216HW,2013-03-12 08:00:00,
2013-03-12 01:05:00,49.7,46.3,30.14,SSE,158,4.0,6.9,88,0.00,,,0.00,WUHU216HW,2013-03-12 08:05:00,
2013-03-12 01:10:00,49.9,46.4,30.14,SSW,203,4.0,6.9,88,0.00,,,0.00,WUHU216HW,2013-03-12 08:10:00,
2013-03-12 01:15:00,49.9,46.4,30.14,South,180,3.4,5.4,88,0.00,,,0.00,WUHU216HW,2013-03-12 08:15:00,
2013-03-12 01:20:00,49.9,46.4,30.13,SSW,203,2.5,5.1,88,0.00,,,0.00,WUHU216HW,2013-03-12 08:20:00,
2013-03-12 01:25:00,50.0,46.5,30.13,South,180,2.2,4.0,88,0.00,,,0.00,WUHU216HW,2013-03-12 08:25:00,
2013-03-12 01:30:00,50.0,46.5,30.13,SW,225,4.0,4.7,88,0.00,,,0.00,WUHU216HW,2013-03-12 08:30:00,
2013-03-12 01:35:00,50.0,46.9,30.13,South,180,4.3,6.9,89,0.00,,,0.00,WUHU216HW,2013-03-12 08:35:00,
2013-03-12 01:40:00,50.2,47.1,30.13,SSE,158,4.0,7.6,89,0.00,,,0.00,WUHU216HW,2013-03-12 08:40:00,
2013-03-12 01:45:00,50.2,47.1,30.13,South,180,5.4,7.6,89,0.00,,,0.00,WUHU216HW,2013-03-12 08:45:00,
2013-03-12 01:50:00,50.4,46.9,30.12,WSW,248,3.6,6.7,88,0.00,,,0.00,WUHU216HW,2013-03-12 08:50:00,
2013-03-12 01:55:00,50.4,47.3,30.12,South,180,5.4,7.6,89,0.00,,,0.00,WUHU216HW,2013-03-12 08:55:00,
2013-03-12 02:00:00,50.4,47.3,30.12,South,180,4.3,7.6,89,0.00,,,0.00,WUHU216HW,2013-03-12 09:00:00,
2013-03-12 02:05:00,50.4,47.3,30.12,South,180,2.7,7.4,89,0.00,,,0.00,WUHU216HW,2013-03-12 09:05:00,
2013-03-12 02:10:00,50.4,47.3,30.12,SSE,158,4.9,6.9,89,0.00,,,0.00,WUHU216HW,2013-03-12 09:10:00,
2013-03-12 02:15:00,50.4,47.3,30.12,SSE,158,3.1,9.4,89,0.00,,,0.00,WUHU216HW,2013-03-12 09:15:00,
2013-03-12 02:20:00,50.4,47.3,30.12,SSW,203,3.4,9.4,89,0.00,,,0.00,WUHU216HW,2013-03-12 09:20:00,
2013-03-12 02:25:00,50.4,47.3,30.12,South,180,4.3,6.3,89,0.00,,,0.00,WUHU216HW,2013-03-12 09:25:00,
2013-03-12 02:30:00,50.4,47.3,30.12,South,180,5.4,6.9,89,0.00,,,0.00,WUHU216HW,2013-03-12 09:30:00,
2013-03-12 02:35:00,50.4,47.5,30.12,SSE,158,6.3,7.6,90,0.00,,,0.00,WUHU216HW,2013-03-12 09:35:00,
2013-03-12 02:40:00,50.4,47.5,30.12,South,180,4.3,8.5,90,0.00,,,0.00,WUHU216HW,2013-03-12 09:40:00,
2013-03-12 02:45:00,50.4,47.5,30.12,South,180,4.5,8.5,90,0.00,,,0.00,WUHU216HW,2013-03-12 09:45:00,
2013-03-12 02:50:00,50.4,47.5,30.12,SSW,203,3.4,6.9,90,0.00,,,0.00,WUHU216HW,2013-03-12 09:50:00,
2013-03-12 02:55:00,50.6,47.7,30.12,South,180,2.7,6.9,90,0.00,,,0.00,WUHU216HW,2013-03-12 09:55:00,
2013-03-12 03:00:00,50.6,47.7,30.12,SW,225,5.4,6.5,90,0.00,,,0.00,WUHU216HW,2013-03-12 10:00:00,
2013-03-12 03:05:00,50.6,47.7,30.12,South,180,1.3,6.5,90,0.00,,,0.00,WUHU216HW,2013-03-12 10:05:00,
2013-03-12 03:10:00,50.6,47.7,30.12,South,180,6.3,8.1,90,0.00,,,0.00,WUHU216HW,2013-03-12 10:10:00,
2013-03-12 03:15:00,50.6,47.7,30.12,WSW,248,3.8,8.1,90,0.00,,,0.00,WUHU216HW,2013-03-12 10:15:00,
2013-03-12 03:20:00,50.6,47.7,30.12,South,180,3.4,6.3,90,0.00,,,0.00,WUHU216HW,2013-03-12 10:20:00,
2013-03-12 03:25:00,50.6,47.7,30.11,SSE,158,4.9,6.9,90,0.00,,,0.00,WUHU216HW,2013-03-12 10:25:00,
2013-03-12 03:30:00,50.6,47.7,30.11,SSW,203,4.0,6.9,90,0.00,,,0.00,WUHU216HW,2013-03-12 10:30:00,
2013-03-12 03:35:00,50.8,47.9,30.11,South,180,5.8,6.7,90,0.00,,,0.00,WUHU216HW,2013-03-12 10:35:00,
2013-03-12 03:40:00,50.8,47.9,30.11,South,180,2.5,7.4,90,0.00,,,0.00,WUHU216HW,2013-03-12 10:40:00,
2013-03-12 03:45:00,50.8,47.9,30.11,WSW,248,5.8,7.4,90,0.00,,,0.00,WUHU216HW,2013-03-12 10:45:00,
2013-03-12 03:50:00,50.8,47.9,30.10,SW,225,2.9,6.7,90,0.00,,,0.00,WUHU216HW,2013-03-12 10:50:00,
2013-03-12 03:55:00,50.8,47.9,30.11,SW,225,6.5,8.7,90,0.00,,,0.00,WUHU216HW,2013-03-12 10:55:00,
2013-03-12 04:00:00,50.8,47.9,30.10,SSW,203,5.4,8.7,90,0.00,,,0.00,WUHU216HW,2013-03-12 11:00:00,
2013-03-12 04:05:00,50.8,47.9,30.10,SSW,203,5.1,7.6,90,0.00,,,0.00,WUHU216HW,2013-03-12 11:05:00,
2013-03-12 04:10:00,50.9,48.1,30.10,SSW,203,6.0,6.5,90,0.00,,,0.00,WUHU216HW,2013-03-12 11:10:00,
2013-03-12 04:15:00,50.9,48.1,30.10,SSE,158,7.8,8.3,90,0.00,,,0.00,WUHU216HW,2013-03-12 11:15:00,
2013-03-12 04:20:00,50.9,48.1,30.10,WSW,248,5.4,8.5,90,0.00,,,0.00,WUHU216HW,2013-03-12 11:20:00,
2013-03-12 04:25:00,51.1,48.0,30.09,South,180,4.0,8.5,89,0.00,,,0.00,WUHU216HW,2013-03-12 11:25:00,
2013-03-12 04:30:00,51.1,48.0,30.10,South,180,5.4,8.3,89,0.00,,,0.00,WUHU216HW,2013-03-12 11:30:00,
2013-03-12 04:35:00,51.1,48.0,30.09,SSE,158,4.0,6.7,89,0.00,,,0.00,WUHU216HW,2013-03-12 11:35:00,
2013-03-12 04:40:00,51.1,48.0,30.09,South,180,3.4,7.4,89,0.00,,,0.00,WUHU216HW,2013-03-12 11:40:00,
2013-03-12 04:45:00,51.1,48.0,30.09,WSW,248,6.3,10.1,89,0.00,,,0.00,WUHU216HW,2013-03-12 11:45:00,
2013-03-12 04:50:00,51.1,48.2,30.09,SW,225,6.3,11.4,90,0.00,,,0.00,WUHU216HW,2013-03-12 11:50:00,
2013-03-12 04:55:00,51.3,48.2,30.09,South,180,3.8,11.4,89,0.00,,,0.00,WUHU216HW,2013-03-12 11:55:00,
2013-03-12 05:00:00,51.3,48.2,30.09,South,180,5.8,9.8,89,0.00,,,0.00,WUHU216HW,2013-03-12 12:00:00,
2013-03-12 05:05:00,51.3,48.2,30.09,South,180,4.5,6.7,89,0.00,,,0.00,WUHU216HW,2013-03-12 12:05:00,
2013-03-12 05:10:00,51.3,48.2,30.09,South,180,6.9,6.9,89,0.00,,,0.00,WUHU216HW,2013-03-12 12:10:00,
2013-03-12 05:15:00,51.3,48.2,30.09,SE,135,3.6,7.6,89,0.00,,,0.00,WUHU216HW,2013-03-12 12:15:00,
2013-03-12 05:20:00,51.3,48.2,30.09,SSE,158,5.6,7.6,89,0.00,,,0.00,WUHU216HW,2013-03-12 12:20:00,
2013-03-12 05:25:00,51.5,48.3,30.09,SW,225,4.0,7.4,89,0.00,,,0.00,WUHU216HW,2013-03-12 12:25:00,
2013-03-12 05:30:00,51.5,48.3,30.09,WSW,248,3.4,8.5,89,0.00,,,0.00,WUHU216HW,2013-03-12 12:30:00,
2013-03-12 05:35:00,51.5,48.3,30.09,SSW,203,4.7,8.5,89,0.00,,,0.00,WUHU216HW,2013-03-12 12:35:00,
2013-03-12 05:40:00,51.5,48.3,30.09,SSW,203,3.1,7.6,89,0.00,,,0.00,WUHU216HW,2013-03-12 12:40:00,
2013-03-12 05:45:00,51.5,48.3,30.09,South,180,2.5,7.6,89,0.00,,,0.00,WUHU216HW,2013-03-12 12:45:00,
2013-03-12 05:50:00,51.5,48.3,30.09,SSW,203,5.4,6.9,89,0.00,,,0.00,WUHU216HW,2013-03-12 12:50:00,
2013-03-12 05:55:00,51.5,48.3,30.09,SSW,203,2.9,8.3,89,0.00,,,0.00,WUHU216HW,2013-03-12 12:55:00,
2013-03-12 06:00:00,51.5,48.3,30.08,WSW,248,3.6,8.3,89,0.00,,,0.00,WUHU216HW,2013-03-12 13:00:00,
2013-03-12 06:05:00,51.5,48.3,30.08,WSW,248,3.8,8.3,89,0.00,,,0.00,WUHU216HW,2013-03-12 13:05:00,
2013-03-12 06:10:00,51.5,48.3,30.08,SW,225,5.4,8.3,89,0.00,,,0.00,WUHU216HW,2013-03-12 13:10:00,
2013-03-12 06:15:00,51.5,48.3,30.08,SSW,203,4.9,8.3,89,0.00,,,0.00,WUHU216HW,2013-03-12 13:15:00,
2013-03-12 06:20:00,51.5,48.3,30.08,WSW,248,3.8,6.7,89,0.00,,,0.00,WUHU216HW,2013-03-12 13:20:00,
2013-03-12 06:25:00,51.5,48.3,30.08,South,180,3.1,6.5,89,0.00,,,0.00,WUHU216HW,2013-03-12 13:25:00,
2013-03-12 06:30:00,51.5,48.3,30.08,SSW,203,3.6,8.5,89,0.00,,,0.00,WUHU216HW,2013-03-12 13:30:00,
2013-03-12 06:35:00,51.5,48.3,30.08,South,180,5.4,8.5,89,0.00,,,0.00,WUHU216HW,2013-03-12 13:35:00,
2013-03-12 06:40:00,51.5,48.3,30.07,South,180,3.8,6.9,89,0.00,,,0.00,WUHU216HW,2013-03-12 13:40:00,
2013-03-12 06:45:00,51.5,48.3,30.07,South,180,4.9,9.6,89,0.00,,,0.00,WUHU216HW,2013-03-12 13:45:00,
2013-03-12 06:50:00,51.5,48.3,30.07,South,180,4.3,9.6,89,0.00,,,0.00,WUHU216HW,2013-03-12 13:50:00,
2013-03-12 06:55:00,51.7,48.5,30.07,West,270,1.8,10.3,89,0.00,,,0.00,WUHU216HW,2013-03-12 13:55:00,
2013-03-12 07:00:00,51.7,48.5,30.07,SSE,158,2.9,10.3,89,0.00,,,0.00,WUHU216HW,2013-03-12 14:00:00,
2013-03-12 07:05:00,51.7,48.5,30.07,SSW,203,4.9,9.6,89,0.00,,,0.00,WUHU216HW,2013-03-12 14:05:00,
2013-03-12 07:10:00,51.7,48.5,30.07,SSW,203,6.3,10.5,89,0.00,,,0.00,WUHU216HW,2013-03-12 14:10:00,
2013-03-12 07:15:00,51.7,48.5,30.07,SSW,203,3.6,10.5,89,0.00,,,0.00,WUHU216HW,2013-03-12 14:15:00,
2013-03-12 07:20:00,51.7,48.5,30.07,SSE,158,5.8,6.9,89,0.00,,,0.00,WUHU216HW,2013-03-12 14:20:00,
2013-03-12 07:25:00,51.7,48.5,30.07,South,180,4.7,9.6,89,0.00,,,0.00,WUHU216HW,2013-03-12 14:25:00,
2013-03-12 07:30:00,51.7,48.2,30.06,SSW,203,5.1,11.2,88,0.00,,,0.00,WUHU216HW,2013-03-12 14:30:00,
2013-03-12 07:35:00,51.8,48.3,30.06,SSW,203,2.7,11.2,88,0.00,,,0.00,WUHU216HW,2013-03-12 14:35:00,
2013-03-12 07:40:00,51.8,48.3,30.06,SSW,203,4.7,9.8,88,0.00,,,0.00,WUHU216HW,2013-03-12 14:40:00,
2013-03-12 07:45:00,51.8,48.3,30.06,South,180,5.4,9.8,88,0.00,,,0.00,WUHU216HW,2013-03-12 14:45:00,
2013-03-12 07:50:00,51.8,48.3,30.07,South,180,5.8,8.3,88,0.00,,,0.00,WUHU216HW,2013-03-12 14:50:00,
2013-03-12 07:55:00,51.8,48.3,30.07,East,90,4.0,8.3,88,0.00,,,0.00,WUHU216HW,2013-03-12 14:55:00,
2013-03-12 08:00:00,51.8,48.3,30.08,SSW,203,4.0,8.5,88,0.00,,,0.00,WUHU216HW,2013-03-12 15:00:00,
2013-03-12 08:05:00,51.8,48.3,30.07,SSE,158,4.0,8.5,88,0.00,,,0.00,WUHU216HW,2013-03-12 15:05:00,
2013-03-12 08:10:00,51.8,48.3,30.07,South,180,2.2,8.1,88,0.00,,,0.00,WUHU216HW,2013-03-12 15:10:00,
2013-03-12 08:15:00,51.8,48.3,30.08,SW,225,4.5,6.9,88,0.00,,,0.00,WUHU216HW,2013-03-12 15:15:00,
2013-03-12 08:20:00,51.8,48.3,30.07,SW,225,3.4,10.1,88,0.00,,,0.00,WUHU216HW,2013-03-12 15:20:00,
2013-03-12 08:25:00,51.8,48.3,30.07,SSW,203,3.4,10.1,88,0.00,,,0.00,WUHU216HW,2013-03-12 15:25:00,
2013-03-12 08:30:00,51.8,48.3,30.08,SSE,158,3.1,7.8,88,0.00,,,0.00,WUHU216HW,2013-03-12 15:30:00,
2013-03-12 08:35:00,51.8,48.3,30.08,SSW,203,3.4,11.4,88,0.00,,,0.00,WUHU216HW,2013-03-12 15:35:00,
2013-03-12 08:40:00,51.8,48.3,30.08,South,180,2.9,11.4,88,0.00,,,0.00,WUHU216HW,2013-03-12 15:40:00,
2013-03-12 08:45:00,52.0,48.3,30.08,SSE,158,3.6,6.3,87,0.00,,,0.00,WUHU216HW,2013-03-12 15:45:00,
2013-03-12 08:50:00,51.8,48.1,30.09,SSW,203,3.4,6.3,87,0.00,,,0.00,WUHU216HW,2013-03-12 15:50:00,
2013-03-12 08:55:00,52.0,48.3,30.09,South,180,3.4,5.4,87,0.00,,,0.00,WUHU216HW,2013-03-12 15:55:00,
2013-03-12 09:00:00,52.0,48.3,30.09,SSE,158,4.7,5.6,87,0.00,,,0.00,WUHU216HW,2013-03-12 16:00:00,
2013-03-12 09:05:00,52.2,48.4,30.09,South,180,6.9,6.9,87,0.00,,,0.00,WUHU216HW,2013-03-12 16:05:00,
2013-03-12 09:10:00,52.2,48.4,30.09,SW,225,8.1,8.1,87,0.00,,,0.00,WUHU216HW,2013-03-12 16:10:00,
2013-03-12 09:15:00,52.2,48.4,30.09,SSW,203,2.0,8.3,87,0.00,,,0.00,WUHU216HW,2013-03-12 16:15:00,
2013-03-12 09:20:00,52.2,48.1,30.08,South,180,2.5,8.3,86,0.00,,,0.00,WUHU216HW,2013-03-12 16:20:00,
2013-03-12 09:25:00,52.2,48.1,30.08,South,180,4.9,6.9,86,0.00,,,0.00,WUHU216HW,2013-03-12 16:25:00,
2013-03-12 09:30:00,52.2,48.1,30.08,SSW,203,2.0,9.8,86,0.00,,,0.00,WUHU216HW,2013-03-12 16:30:00,
2013-03-12 09:35:00,52.2,48.1,30.08,SW,225,3.6,9.8,86,0.00,,,0.00,WUHU216HW,2013-03-12 16:35:00,
2013-03-12 09:40:00,52.4,48.2,30.08,SSE,158,4.9,7.8,86,0.00,,,0.00,WUHU216HW,2013-03-12 16:40:00,
2013-03-12 09:45:00,52.6,48.2,30.08,South,180,5.8,9.6,85,0.00,,,0.00,WUHU216HW,2013-03-12 16:45:00,
2013-03-12 09:50:00,52.4,48.0,30.07,SSW,203,3.8,9.6,85,0.00,,,0.00,WUHU216HW,2013-03-12 16:50:00,
2013-03-12 09:55:00,52.6,47.9,30.07,South,180,7.2,9.2,84,0.00,,,0.00,WUHU216HW,2013-03-12 16:55:00,
2013-03-12 10:00:00,52.6,47.9,30.07,South,180,4.3,9.2,84,0.00,,,0.00,WUHU216HW,2013-03-12 17:00:00,
2013-03-12 10:05:00,52.7,48.1,30.08,SE,135,6.9,9.8,84,0.00,,,0.00,WUHU216HW,2013-03-12 17:05:00,
2013-03-12 10:10:00,52.7,48.1,30.07,SSE,158,4.9,9.8,84,0.00,,,0.00,WUHU216HW,2013-03-12 17:10:00,
2013-03-12 10:15:00,52.9,47.9,30.08,SSE,158,6.3,10.7,83,0.00,,,0.00,WUHU216HW,2013-03-12 17:15:00,
2013-03-12 10:20:00,52.9,48.3,30.08,South,180,4.7,10.7,84,0.00,,,0.00,WUHU216HW,2013-03-12 17:20:00,
2013-03-12 10:25:00,52.9,48.3,30.08,SW,225,3.4,8.5,84,0.00,,,0.00,WUHU216HW,2013-03-12 17:25:00,
2013-03-12 10:30:00,53.1,48.1,30.08,SSE,158,4.5,7.2,83,0.00,,,0.00,WUHU216HW,2013-03-12 17:30:00,
2013-03-12 10:35:00,53.1,48.1,30.08,SSW,203,4.7,8.5,83,0.00,,,0.00,WUHU216HW,2013-03-12 17:35:00,
2013-03-12 10:40:00,53.1,48.1,30.09,SSW,203,4.3,9.4,83,0.00,,,0.00,WUHU216HW,2013-03-12 17:40:00,
2013-03-12 10:45:00,53.1,48.1,30.09,South,180,5.1,9.4,83,0.00,,,0.00,WUHU216HW,2013-03-12 17:45:00,
2013-03-12 10:50:00,53.3,48.2,30.09,SW,225,3.4,8.3,83,0.00,,,0.00,WUHU216HW,2013-03-12 17:50:00,
2013-03-12 10:55:00,53.3,48.0,30.09,SW,225,2.5,7.6,82,0.00,,,0.00,WUHU216HW,2013-03-12 17:55:00,
2013-03-12 11:00:00,53.3,48.0,30.09,SSW,203,3.8,8.5,82,0.00,,,0.00,WUHU216HW,2013-03-12 18:00:00,
2013-03-12 11:05:00,53.5,48.2,30.09,South,180,5.1,8.5,82,0.00,,,0.00,WUHU216HW,2013-03-12 18:05:00,
2013-03-12 11:10:00,53.5,48.2,30.09,SSW,203,8.3,8.3,82,0.00,,,0.00,WUHU216HW,2013-03-12 18:10:00,
2013-03-12 11:15:00,53.6,48.3,30.09,SW,225,2.9,8.3,82,0.00,,,0.00,WUHU216HW,2013-03-12 18:15:00,
2013-03-12 11:20:00,53.8,48.2,30.09,SSE,158,5.1,8.7,81,0.00,,,0.00,WUHU216HW,2013-03-12 18:20:00,
2013-03-12 11:25:00,54.0,48.1,30.09,South,180,4.7,11.2,80,0.00,,,0.00,WUHU216HW,2013-03-12 18:25:00,
2013-03-12 11:30:00,54.0,48.3,30.09,SSE,158,4.7,11.2,81,0.00,,,0.00,WUHU216HW,2013-03-12 18:30:00,
2013-03-12 11:35:00,54.2,48.2,30.09,SSW,203,3.8,8.9,80,0.00,,,0.00,WUHU216HW,2013-03-12 18:35:00,
2013-03-12 11:40:00,54.4,48.0,30.09,SSW,203,5.1,8.5,79,0.00,,,0.00,WUHU216HW,2013-03-12 18:40:00,
2013-03-12 11:45:00,54.4,48.0,30.09,SSW,203,6.3,8.5,79,0.00,,,0.00,WUHU216HW,2013-03-12 18:45:00,
2013-03-12 11:50:00,54.5,47.8,30.10,WSW,248,6.3,8.7,78,0.00,,,0.00,WUHU216HW,2013-03-12 18:50:00,
2013-03-12 11:55:00,54.5,47.8,30.10,South,180,5.4,8.7,78,0.00,,,0.00,WUHU216HW,2013-03-12 18:55:00,
2013-03-12 12:00:00,54.5,47.8,30.10,WNW,293,2.2,8.7,78,0.00,,,0.00,WUHU216HW,2013-03-12 19:00:00,
2013-03-12 12:05:00,54.7,48.0,30.09,South,180,3.1,8.7,78,0.00,,,0.00,WUHU216HW,2013-03-12 19:05:00,
2013-03-12 12:10:00,54.9,48.2,30.09,South,180,5.1,8.5,78,0.00,,,0.00,WUHU216HW,2013-03-12 19:10:00,
2013-03-12 12:15:00,55.1,48.3,30.09,SSW,203,6.7,9.2,78,0.00,,,0.00,WUHU216HW,2013-03-12 19:15:00,
2013-03-12 12:20:00,55.1,48.3,30.10,SSE,158,5.8,9.2,78,0.00,,,0.00,WUHU216HW,2013-03-12 19:20:00,
2013-03-12 12:25:00,55.3,48.2,30.09,South,180,7.6,9.6,77,0.00,,,0.00,WUHU216HW,2013-03-12 19:25:00,
2013-03-12 12:30:00,55.3,48.2,30.09,SSE,158,5.4,9.6,77,0.00,,,0.00,WUHU216HW,2013-03-12 19:30:00,
2013-03-12 12:35:00,55.3,48.2,30.10,SSW,203,5.1,9.4,77,0.00,,,0.00,WUHU216HW,2013-03-12 19:35:00,
2013-03-12 12:40:00,55.4,48.0,30.10,South,180,5.4,9.4,76,0.00,,,0.00,WUHU216HW,2013-03-12 19:40:00,
2013-03-12 12:45:00,55.4,48.0,30.10,SW,225,4.3,9.6,76,0.00,,,0.00,WUHU216HW,2013-03-12 19:45:00,
2013-03-12 12:50:00,55.4,47.6,30.10,South,180,5.8,9.6,75,0.00,,,0.00,WUHU216HW,2013-03-12 19:50:00,
2013-03-12 12:55:00,55.4,48.0,30.10,SW,225,6.7,9.8,76,0.00,,,0.00,WUHU216HW,2013-03-12 19:55:00,
2013-03-12 13:00:00,55.4,48.0,30.10,SSW,203,4.3,9.8,76,0.00,,,0.00,WUHU216HW,2013-03-12 20:00:00,
2013-03-12 13:05:00,55.4,48.0,30.09,NNE,23,4.7,8.5,76,0.00,,,0.00,WUHU216HW,2013-03-12 20:05:00,
2013-03-12 13:10:00,55.4,48.0,30.10,South,180,6.0,8.9,76,0.00,,,0.00,WUHU216HW,2013-03-12 20:10:00,
2013-03-12 13:15:00,55.4,48.0,30.10,South,180,4.0,9.2,76,0.00,,,0.00,WUHU216HW,2013-03-12 20:15:00,
2013-03-12 13:20:00,55.3,48.2,30.10,SW,225,4.3,9.2,77,0.00,,,0.00,WUHU216HW,2013-03-12 20:20:00,
2013-03-12 13:25:00,55.1,48.0,30.10,SSW,203,5.4,9.6,77,0.00,,,0.00,WUHU216HW,2013-03-12 20:25:00,
2013-03-12 13:30:00,55.1,48.3,30.10,SSW,203,2.5,9.6,78,0.00,,,0.00,WUHU216HW,2013-03-12 20:30:00,
2013-03-12 13:35:00,55.1,48.3,30.10,SSW,203,3.8,6.3,78,0.00,,,0.00,WUHU216HW,2013-03-12 20:35:00,
2013-03-12 13:40:00,55.1,48.7,30.10,South,180,6.3,6.9,79,0.00,,,0.00,WUHU216HW,2013-03-12 20:40:00,
2013-03-12 13:45:00,55.1,48.3,30.10,South,180,3.1,6.9,78,0.00,,,0.00,WUHU216HW,2013-03-12 20:45:00,
2013-03-12 13:50:00,55.1,48.7,30.10,South,180,5.8,6.3,79,0.00,,,0.00,WUHU216HW,2013-03-12 20:50:00,
2013-03-12 13:55:00,55.1,48.7,30.10,SSE,158,8.9,8.9,79,0.00,,,0.00,WUHU216HW,2013-03-12 20:55:00,
2013-03-12 14:00:00,55.1,48.3,30.10,South,180,5.8,8.9,78,0.00,,,0.00,WUHU216HW,2013-03-12 21:00:00,
2013-03-12 14:05:00,55.1,48.7,30.10,SSE,158,6.9,8.9,79,0.00,,,0.00,WUHU216HW,2013-03-12 21:05:00,
2013-03-12 14:10:00,55.1,48.3,30.09,SSW,203,6.7,9.6,78,0.00,,,0.00,WUHU216HW,2013-03-12 21:10:00,
2013-03-12 14:15:00,55.1,48.3,30.09,SSW,203,6.5,9.6,78,0.00,,,0.00,WUHU216HW,2013-03-12 21:15:00,
2013-03-12 14:20:00,55.1,48.3,30.09,SSW,203,5.6,8.3,78,0.00,,,0.00,WUHU216HW,2013-03-12 21:20:00,
2013-03-12 14:25:00,55.1,48.7,30.09,SSW,203,2.9,7.8,79,0.00,,,0.00,WUHU216HW,2013-03-12 21:25:00,
2013-03-12 14:30:00,55.1,48.7,30.10,SSE,158,3.1,7.8,79,0.00,,,0.00,WUHU216HW,2013-03-12 21:30:00,
2013-03-12 14:35:00,55.1,48.7,30.09,South,180,6.3,6.3,79,0.00,,,0.00,WUHU216HW,2013-03-12 21:35:00,
2013-03-12 14:40:00,55.1,49.0,30.09,SSW,203,6.5,9.6,80,0.00,,,0.00,WUHU216HW,2013-03-12 21:40:00,
2013-03-12 14:45:00,55.1,49.0,30.09,South,180,7.4,9.6,80,0.00,,,0.00,WUHU216HW,2013-03-12 21:45:00,
2013-03-12 14:50:00,55.1,49.3,30.09,SSW,203,6.7,8.5,81,0.00,,,0.00,WUHU216HW,2013-03-12 21:50:00,
2013-03-12 14:55:00,54.9,49.1,30.09,WSW,248,2.7,11.6,81,0.00,,,0.00,WUHU216HW,2013-03-12 21:55:00,
2013-03-12 15:00:00,54.9,49.5,30.09,SSW,203,2.7,11.6,82,0.00,,,0.00,WUHU216HW,2013-03-12 22:00:00,
2013-03-12 15:05:00,54.7,49.3,30.09,SSE,158,5.1,7.6,82,0.00,,,0.00,WUHU216HW,2013-03-12 22:05:00,
2013-03-12 15:10:00,54.7,49.3,30.09,SSW,203,2.7,7.2,82,0.00,,,0.00,WUHU216HW,2013-03-12 22:10:00,
2013-03-12 15:15:00,54.7,49.6,30.09,South,180,5.6,7.8,83,0.00,,,0.00,WUHU216HW,2013-03-12 22:15:00,
2013-03-12 15:20:00,54.7,50.0,30.09,SSW,203,6.9,7.8,84,0.00,,,0.00,WUHU216HW,2013-03-12 22:20:00,
2013-03-12 15:25:00,54.5,49.8,30.09,SSE,158,3.8,8.7,84,0.00,,,0.00,WUHU216HW,2013-03-12 22:25:00,
2013-03-12 15:30:00,54.5,50.1,30.08,South,180,4.0,8.7,85,0.00,,,0.00,WUHU216HW,2013-03-12 22:30:00,
2013-03-12 15:35:00,54.7,50.6,30.08,South,180,6.0,6.9,86,0.00,,,0.00,WUHU216HW,2013-03-12 22:35:00,
2013-03-12 15:40:00,54.7,50.6,30.08,SSW,203,5.4,6.9,86,0.00,,,0.00,WUHU216HW,2013-03-12 22:40:00,
2013-03-12 15:45:00,55.1,51.0,30.08,SSW,203,6.5,6.7,86,0.00,,,0.00,WUHU216HW,2013-03-12 22:45:00,
2013-03-12 15:50:00,55.1,51.0,30.08,SSE,158,3.6,7.4,86,0.00,,,0.00,WUHU216HW,2013-03-12 22:50:00,
2013-03-12 15:55:00,55.1,51.0,30.09,SSW,203,5.8,7.6,86,0.00,,,0.00,WUHU216HW,2013-03-12 22:55:00,
2013-03-12 16:00:00,55.1,51.0,30.09,SSW,203,5.4,8.5,86,0.01,,,0.00,WUHU216HW,2013-03-12 23:00:00,
2013-03-12 16:05:00,54.9,51.0,30.09,South,180,6.5,8.7,87,0.01,,,0.00,WUHU216HW,2013-03-12 23:05:00,
2013-03-12 16:10:00,54.7,50.9,30.09,SSE,158,2.5,8.7,87,0.01,,,0.00,WUHU216HW,2013-03-12 23:10:00,
2013-03-12 16:15:00,54.7,50.9,30.09,WSW,248,4.7,6.5,87,0.01,,,0.00,WUHU216HW,2013-03-12 23:15:00,
2013-03-12 16:20:00,54.5,51.0,30.09,South,180,5.1,5.4,88,0.01,,,0.00,WUHU216HW,2013-03-12 23:20:00,
2013-03-12 16:25:00,54.5,51.0,30.09,South,180,2.7,6.9,88,0.01,,,0.00,WUHU216HW,2013-03-12 23:25:00,
2013-03-12 16:30:00,54.4,50.9,30.10,South,180,4.3,6.9,88,0.01,,,0.00,WUHU216HW,2013-03-12 23:30:00,
2013-03-12 16:35:00,54.4,51.2,30.09,SSE,158,4.0,6.0,89,0.01,,,0.00,WUHU216HW,2013-03-12 23:35:00,
2013-03-12 16:40:00,54.2,51.0,30.09,South,180,3.4,6.5,89,0.01,,,0.00,WUHU216HW,2013-03-12 23:40:00,
2013-03-12 16:45:00,54.0,50.9,30.09,South,180,4.5,6.5,89,0.01,,,0.00,WUHU216HW,2013-03-12 23:45:00,
2013-03-12 16:50:00,54.0,50.9,30.09,South,180,2.0,5.4,89,0.01,,,0.00,WUHU216HW,2013-03-12 23:50:00,
2013-03-12 16:55:00,53.8,50.7,30.09,SSW,203,3.4,5.4,89,0.01,,,0.00,WUHU216HW,2013-03-12 23:55:00,
2013-03-12 17:00:00,53.8,50.7,30.09,South,180,2.5,5.6,89,0.00,,,0.00,WUHU216HW,2013-03-13 00:00:00,
2013-03-12 17:05:00,53.6,50.8,30.09,South,180,3.8,5.6,90,0.01,,,0.02,WUHU216HW,2013-03-13 00:05:00,
2013-03-12 17:10:00,53.6,50.5,30.09,South,180,2.5,4.9,89,0.01,,,0.02,WUHU216HW,2013-03-13 00:10:00,
2013-03-12 17:15:00,53.6,50.8,30.09,SSW,203,3.4,4.9,90,0.01,,,0.02,WUHU216HW,2013-03-13 00:15:00,
2013-03-12 17:20:00,53.5,50.9,30.09,South,180,2.5,4.7,91,0.01,,,0.02,WUHU216HW,2013-03-13 00:20:00,
2013-03-12 17:25:00,53.3,50.7,30.09,SSW,203,1.8,4.7,91,0.02,,,0.03,WUHU216HW,2013-03-13 00:25:00,
2013-03-12 17:30:00,53.1,50.5,30.09,SSW,203,3.1,4.7,91,0.02,,,0.03,WUHU216HW,2013-03-13 00:30:00,
2013-03-12 17:35:00,52.9,50.3,30.09,SSW,203,4.0,4.3,91,0.03,,,0.03,WUHU216HW,2013-03-13 00:35:00,
2013-03-12 17:40:00,52.9,50.6,30.09,SSW,203,4.7,4.7,92,0.03,,,0.04,WUHU216HW,2013-03-13 00:40:00,
2013-03-12 17:45:00,52.7,50.4,30.09,South,180,1.8,4.7,92,0.03,,,0.04,WUHU216HW,2013-03-13 00:45:00,
2013-03-12 17:50:00,52.6,50.0,30.09,SSE,158,3.6,5.1,91,0.03,,,0.04,WUHU216HW,2013-03-13 00:50:00,
2013-03-12 17:55:00,52.6,50.2,30.09,SW,225,3.4,5.1,92,0.03,,,0.04,WUHU216HW,2013-03-13 00:55:00,
2013-03-12 18:00:00,52.6,50.2,30.09,SSW,203,2.9,4.5,92,0.02,,,0.04,WUHU216HW,2013-03-13 01:00:00,
2013-03-12 18:05:00,52.6,50.2,30.09,SSE,158,1.8,5.4,92,0.03,,,0.05,WUHU216HW,2013-03-13 01:05:00,
2013-03-12 18:10:00,52.6,50.2,30.09,SSW,203,1.8,5.4,92,0.03,,,0.05,WUHU216HW,2013-03-13 01:10:00,
2013-03-12 18:15:00,52.6,50.2,30.09,West,270,3.1,4.0,92,0.03,,,0.05,WUHU216HW,2013-03-13 01:15:00,
2013-03-12 18:20:00,52.4,50.0,30.09,West,270,4.0,4.0,92,0.02,,,0.05,WUHU216HW,2013-03-13 01:20:00,
2013-03-12 18:25:00,52.4,50.0,30.08,South,180,1.3,4.0,92,0.02,,,0.05,WUHU216HW,2013-03-13 01:25:00,
2013-03-12 18:30:00,52.4,50.0,30.08,SSW,203,2.2,4.0,92,0.02,,,0.05,WUHU216HW,2013-03-13 01:30:00,
2013-03-12 18:35:00,52.4,50.0,30.09,SSE,158,2.7,3.4,92,0.02,,,0.06,WUHU216HW,2013-03-13 01:35:00,
2013-03-12 18:40:00,52.2,49.9,30.09,SW,225,2.5,4.7,92,0.02,,,0.06,WUHU216HW,2013-03-13 01:40:00,
2013-03-12 18:45:00,52.4,50.0,30.09,WSW,248,2.2,4.7,92,0.02,,,0.06,WUHU216HW,2013-03-13 01:45:00,
2013-03-12 18:50:00,52.2,49.9,30.08,SW,225,1.8,4.0,92,0.02,,,0.06,WUHU216HW,2013-03-13 01:50:00,
2013-03-12 18:55:00,52.2,49.9,30.08,South,180,4.7,4.7,92,0.02,,,0.06,WUHU216HW,2013-03-13 01:55:00,
2013-03-12 19:00:00,52.2,49.9,30.09,South,180,2.5,5.4,92,0.03,,,0.07,WUHU216HW,2013-03-13 02:00:00,
2013-03-12 19:05:00,52.2,49.9,30.09,South,180,4.7,5.4,92,0.02,,,0.07,WUHU216HW,2013-03-13 02:05:00,
2013-03-12 19:10:00,52.0,49.7,30.09,SSW,203,2.5,4.7,92,0.02,,,0.07,WUHU216HW,2013-03-13 02:10:00,
2013-03-12 19:15:00,52.0,49.7,30.09,SSW,203,3.8,4.7,92,0.02,,,0.07,WUHU216HW,2013-03-13 02:15:00,
2013-03-12 19:20:00,52.0,49.7,30.09,NNW,338,2.0,4.5,92,0.02,,,0.07,WUHU216HW,2013-03-13 02:20:00,
2013-03-12 19:25:00,52.0,49.7,30.09,South,180,2.5,5.4,92,0.02,,,0.07,WUHU216HW,2013-03-13 02:25:00,
2013-03-12 19:30:00,51.8,49.9,30.09,SW,225,4.7,5.4,93,0.02,,,0.07,WUHU216HW,2013-03-13 02:30:00,
2013-03-12 19:35:00,51.8,49.5,30.09,SE,135,3.4,5.4,92,0.01,,,0.07,WUHU216HW,2013-03-13 02:35:00,
2013-03-12 19:40:00,51.8,49.5,30.09,SSW,203,2.9,6.9,92,0.01,,,0.07,WUHU216HW,2013-03-13 02:40:00,
2013-03-12 19:45:00,51.8,49.5,30.09,SSW,203,4.0,6.9,92,0.01,,,0.07,WUHU216HW,2013-03-13 02:45:00,
2013-03-12 19:50:00,51.8,49.5,30.09,SW,225,3.4,6.5,92,0.01,,,0.07,WUHU216HW,2013-03-13 02:50:00,
2013-03-12 19:55:00,51.8,49.5,30.10,SSE,158,3.4,8.7,92,0.01,,,0.07,WUHU216HW,2013-03-13 02:55:00,
2013-03-12 20:00:00,51.8,49.5,30.10,SSW,203,6.0,8.7,92,0.00,,,0.07,WUHU216HW,2013-03-13 03:00:00,
2013-03-12 20:05:00,52.0,50.1,30.10,SSW,203,8.1,8.1,93,0.00,,,0.07,WUHU216HW,2013-03-13 03:05:00,
2013-03-12 20:10:00,52.0,49.7,30.10,SSW,203,3.6,8.1,92,0.00,,,0.07,WUHU216HW,2013-03-13 03:10:00,
2013-03-12 20:15:00,52.0,49.7,30.10,SSE,158,4.0,8.1,92,0.00,,,0.07,WUHU216HW,2013-03-13 03:15:00,
2013-03-12 20:20:00,51.8,49.9,30.10,SSW,203,4.7,5.6,93,0.00,,,0.07,WUHU216HW,2013-03-13 03:20:00,
2013-03-12 20:25:00,51.8,49.5,30.10,SSW,203,3.6,5.6,92,0.00,,,0.07,WUHU216HW,2013-03-13 03:25:00,
2013-03-12 20:30:00,51.8,49.9,30.10,SSW,203,1.8,4.7,93,0.00,,,0.07,WUHU216HW,2013-03-13 03:30:00,
2013-03-12 20:35:00,51.8,49.5,30.10,South,180,3.4,6.7,92,0.01,,,0.08,WUHU216HW,2013-03-13 03:35:00,
2013-03-12 20:40:00,52.0,49.7,30.10,South,180,6.5,6.7,92,0.01,,,0.08,WUHU216HW,2013-03-13 03:40:00,
2013-03-12 20:45:00,51.8,49.9,30.11,SW,225,4.0,6.5,93,0.01,,,0.08,WUHU216HW,2013-03-13 03:45:00,
2013-03-12 20:50:00,51.8,49.5,30.11,South,180,3.8,7.6,92,0.01,,,0.08,WUHU216HW,2013-03-13 03:50:00,
2013-03-12 20:55:00,51.8,49.5,30.11,South,180,4.5,7.6,92,0.01,,,0.08,WUHU216HW,2013-03-13 03:55:00,
2013-03-12 21:00:00,51.8,49.5,30.11,SSE,158,3.1,9.2,92,0.01,,,0.08,WUHU216HW,2013-03-13 04:00:00,
2013-03-12 21:05:00,51.8,49.5,30.11,SSW,203,5.4,9.2,92,0.01,,,0.08,WUHU216HW,2013-03-13 04:05:00,
2013-03-12 21:10:00,51.8,49.5,30.11,South,180,4.5,11.4,92,0.01,,,0.08,WUHU216HW,2013-03-13 04:10:00,
2013-03-12 21:15:00,51.8,49.5,30.11,ENE,68,4.9,11.4,92,0.01,,,0.08,WUHU216HW,2013-03-13 04:15:00,
2013-03-12 21:20:00,51.7,49.1,30.11,South,180,6.3,11.2,91,0.01,,,0.08,WUHU216HW,2013-03-13 04:20:00,
2013-03-12 21:25:00,51.8,49.2,30.10,SSE,158,4.9,9.8,91,0.01,,,0.08,WUHU216HW,2013-03-13 04:25:00,
2013-03-12 21:30:00,51.7,49.1,30.10,SW,225,5.8,10.5,91,0.00,,,0.08,WUHU216HW,2013-03-13 04:30:00,
2013-03-12 21:35:00,51.7,49.1,30.10,South,180,6.7,10.5,91,0.00,,,0.08,WUHU216HW,2013-03-13 04:35:00,
2013-03-12 21:40:00,51.7,49.1,30.10,South,180,6.5,10.3,91,0.00,,,0.08,WUHU216HW,2013-03-13 04:40:00,
2013-03-12 21:45:00,51.7,49.1,30.11,South,180,4.0,10.3,91,0.00,,,0.08,WUHU216HW,2013-03-13 04:45:00,
2013-03-12 21:50:00,51.7,49.1,30.10,South,180,7.2,10.1,91,0.00,,,0.08,WUHU216HW,2013-03-13 04:50:00,
2013-03-12 21:55:00,51.7,49.1,30.11,SSE,158,4.0,9.8,91,0.00,,,0.08,WUHU216HW,2013-03-13 04:55:00,
2013-03-12 22:00:00,51.7,49.1,30.10,SSW,203,5.1,9.8,91,0.00,,,0.08,WUHU216HW,2013-03-13 05:00:00,
2013-03-12 22:05:00,51.7,48.8,30.10,SSE,158,8.3,8.3,90,0.00,,,0.08,WUHU216HW,2013-03-13 05:05:00,
2013-03-12 22:10:00,51.7,48.8,30.11,South,180,6.0,9.6,90,0.00,,,0.08,WUHU216HW,2013-03-13 05:10:00,
2013-03-12 22:15:00,51.7,48.8,30.10,SW,225,5.4,11.4,90,0.00,,,0.08,WUHU216HW,2013-03-13 05:15:00,
2013-03-12 22:20:00,51.7,48.8,30.10,SSW,203,5.8,11.4,90,0.00,,,0.08,WUHU216HW,2013-03-13 05:20:00,
2013-03-12 22:25:00,51.7,48.8,30.10,South,180,6.9,8.5,90,0.00,,,0.08,WUHU216HW,2013-03-13 05:25:00,
2013-03-12 22:30:00,51.7,48.8,30.10,South,180,8.3,9.2,90,0.00,,,0.08,WUHU216HW,2013-03-13 05:30:00,
2013-03-12 22:35:00,51.7,48.8,30.10,South,180,4.7,9.2,90,0.00,,,0.08,WUHU216HW,2013-03-13 05:35:00,
2013-03-12 22:40:00,51.5,48.6,30.10,SW,225,4.7,8.7,90,0.00,,,0.08,WUHU216HW,2013-03-13 05:40:00,
2013-03-12 22:45:00,51.5,48.6,30.11,South,180,6.3,6.7,90,0.00,,,0.08,WUHU216HW,2013-03-13 05:45:00,
2013-03-12 22:50:00,51.5,48.9,30.11,SSE,158,8.3,10.1,91,0.00,,,0.08,WUHU216HW,2013-03-13 05:50:00,
2013-03-12 22:55:00,51.5,48.9,30.11,SW,225,7.6,10.1,91,0.00,,,0.08,WUHU216HW,2013-03-13 05:55:00,
2013-03-12 23:00:00,51.5,48.9,30.11,SE,135,6.3,8.9,91,0.00,,,0.08,WUHU216HW,2013-03-13 06:00:00,
2013-03-12 23:05:00,51.5,48.9,30.11,South,180,6.9,8.5,91,0.00,,,0.08,WUHU216HW,2013-03-13 06:05:00,
2013-03-12 23:10:00,51.5,48.6,30.11,SSW,203,4.5,8.5,90,0.00,,,0.08,WUHU216HW,2013-03-13 06:10:00,
2013-03-12 23:15:00,51.5,48.6,30.11,SSE,158,4.7,7.2,90,0.00,,,0.08,WUHU216HW,2013-03-13 06:15:00,
2013-03-12 23:20:00,51.5,48.6,30.11,WSW,248,5.4,7.8,90,0.00,,,0.08,WUHU216HW,2013-03-13 06:20:00,
2013-03-12 23:25:00,51.3,48.4,30.11,SW,225,4.7,7.8,90,0.00,,,0.08,WUHU216HW,2013-03-13 06:25:00,
2013-03-12 23:30:00,51.3,48.4,30.11,SW,225,4.7,6.9,90,0.00,,,0.08,WUHU216HW,2013-03-13 06:30:00,
2013-03-12 23:35:00,51.3,48.4,30.11,South,180,6.3,7.2,90,0.00,,,0.08,WUHU216HW,2013-03-13 06:35:00,
2013-03-12 23:40:00,51.3,48.4,30.11,SSE,158,4.0,7.2,90,0.00,,,0.08,WUHU216HW,2013-03-13 06:40:00,
2013-03-12 23:45:00,51.3,48.4,30.11,SW,225,4.5,9.2,90,0.00,,,0.08,WUHU216HW,2013-03-13 06:45:00,
2013-03-12 23:50:00,51.3,48.4,30.11,South,180,4.5,9.2,90,0.00,,,0.08,WUHU216HW,2013-03-13 06:50:00,
2013-03-12 23:55:00,51.3,48.4,30.11,South,180,7.6,7.6,90,0.00,,,0.08,WUHU216HW,2013-03-13 06:55:00,